Home   Weather   Dessau-Rosslau   Past weeks

Flag for Germany Past Weather in Dessau-Rosslau, Saxony-Anhalt, Germany — Yesterday and Last 2 Weeks

Now
57 °F

Passing clouds.


Feels Like: 55 °F
Forecast: 59 / 63 °F
Wind: 12 mph from Southwest

Location: Leipzig-Schkeuditz

Current Time: Jul 26, 2017 at 12:50:10 am

Latest Report: Jul 26, 2017 at 12:20 am


Visibility: N/A

Pressure: 29.56 "Hg

Humidity: 94%

Dew Point: 55 °F

Location of Dessau-RosslauLocation

Past Weather in Dessau-Rosslau — Graph

°F

Dessau-Rosslau Temperature Yesterday

Maximum temperature yesterday: 63 °F (at 11:50 am)
Minimum temperature yesterday: 57 °F (at 2:50 am)
Average temperature yesterday: 59 °F

High & Low Weather Summary for the Past Weeks

 TemperatureHumidityPressure
High86 °F (Jul 19, 3:20 pm)100% (Jul 11, 3:20 am)30.24 "Hg (Jul 11, 3:20 am)
Low50 °F (Jul 13, 4:50 am)35% (Jul 19, 3:20 pm)29.56 "Hg (Jul 25, 10:20 pm)
Average65 °F74%29.95 "Hg
* Reported Jul 10 11:20 pm — Jul 25 11:50 pm, Dessau-Rosslau. Weather by CustomWeather, © 2017

Note: Actual official high and low records may vary slightly from our data, if they occured in-between our weather recording intervals... More about our weather records

Advertising

Dessau-Rosslau Weather History for the Previous 24 Hours

Scroll right to see more
 ConditionsComfort  
Time TempWeatherWind HumidityBarometerVisibility
11:50 pm
Tue, Jul 25
59 °FPartly cloudy.9 mph88%29.56 "HgN/A
11:20 pm59 °FPartly cloudy.8 mph94%29.56 "HgN/A
10:50 pm59 °FPassing clouds.9 mph94%29.59 "HgN/A
10:20 pm57 °FPassing clouds.9 mph94%29.56 "HgN/A
9:50 pm57 °FPassing clouds.8 mph94%29.59 "HgN/A
9:20 pm57 °FPassing clouds.10 mph94%29.59 "HgN/A
8:50 pm59 °FBroken clouds.9 mph88%29.59 "HgN/A
8:20 pm59 °FPartly sunny.8 mph88%29.59 "HgN/A
7:50 pm59 °FBroken clouds.9 mph88%29.59 "HgN/A
7:35 pm59 °FBroken clouds.10 mph88%29.59 "HgN/A
7:20 pm59 °FBroken clouds.10 mph88%29.59 "HgN/A
6:50 pm61 °FBroken clouds.12 mph83%29.59 "HgN/A
6:20 pm61 °FPartly sunny.8 mph83%29.59 "HgN/A
5:50 pm61 °FPartly sunny.10 mph83%29.59 "HgN/A
5:20 pm61 °FPartly sunny.12 mph88%29.59 "HgN/A
4:50 pm61 °FPartly sunny.8 mph83%29.59 "HgN/A
4:20 pm61 °FPartly sunny.10 mph88%29.59 "HgN/A
3:50 pm63 °FPartly sunny.8 mph83%29.59 "HgN/A
3:20 pm63 °FLight rain. Partly sunny.8 mph83%29.59 "HgN/A
2:50 pm63 °FLight rain. Partly sunny.12 mph94%29.59 "HgN/A
2:20 pm61 °FLight rain. Partly sunny.12 mph94%29.59 "HgN/A
1:50 pm61 °FLight rain. Partly sunny.9 mph88%29.59 "Hg5 mi
1:20 pm61 °FLight rain. Partly sunny.10 mph94%29.59 "HgN/A
12:50 pm63 °FPartly sunny.9 mph83%29.59 "HgN/A
12:20 pm63 °FPartly sunny.7 mph83%29.59 "HgN/A
11:50 am63 °FPartly sunny.3 mph83%29.59 "HgN/A
11:20 am61 °FPartly sunny.2 mph88%29.59 "HgN/A
10:50 am61 °FPartly sunny.2 mph83%29.59 "HgN/A
10:20 am61 °FPartly sunny.5 mph83%29.59 "HgN/A
9:50 am59 °FPartly sunny.3 mph94%29.59 "HgN/A
9:20 am57 °FLight rain. Mostly cloudy.3 mph100%29.62 "HgN/A
8:50 am57 °FLight rain. Partly sunny.5 mph94%29.62 "HgN/A
8:20 am57 °FLight rain. Mostly cloudy.6 mph94%29.62 "HgN/A
7:50 am57 °FLight rain. Partly sunny.6 mph94%29.62 "HgN/A
7:20 am57 °FLight rain. Partly sunny.6 mph94%29.62 "HgN/A
6:50 am57 °FLight rain. Partly sunny.5 mph94%29.62 "HgN/A
6:20 am57 °FLight rain. Partly sunny.5 mph94%29.62 "HgN/A
5:50 am57 °FLight rain. Partly sunny.6 mph94%29.62 "HgN/A
5:20 am57 °FPassing clouds.7 mph94%29.62 "HgN/A
4:50 am57 °FPassing clouds.7 mph94%29.62 "HgN/A
4:20 am57 °FPassing clouds.8 mph94%29.62 "HgN/A
3:50 am57 °FPassing clouds.9 mph94%29.65 "HgN/A
3:20 am57 °FPassing clouds.8 mph94%29.65 "HgN/A
2:50 am57 °FPassing clouds.8 mph94%29.65 "HgN/A
2:20 am59 °FPassing clouds.8 mph94%29.65 "HgN/A
1:50 am59 °FPassing clouds.9 mph94%29.68 "HgN/A
1:20 am59 °FPassing clouds.8 mph94%29.68 "HgN/A
12:50 am59 °FPassing clouds.7 mph94%29.68 "HgN/A
12:20 am59 °FScattered showers. Passing clouds.9 mph94%29.68 "HgN/A
Weather by CustomWeather, © 2017

See weather overviewHow to use our weather pages